N93SJ LFPB-LIPZ

Flight info

Callsign N93SJ
Flight time N/A
Altitude 31000
Route LANVI DCT DEVDI DCT RIPUS DCT RESIA DCT ADOSA/N0269F190 L612 ALBET
Aircraft SF50/L-BDGRSWY/LB2U2

Departure

Time N/A
Airport Paris-Le Bourget International Airport (LFPB)

Arrival

Time 2026-05-05 17:00
Airport Venice Marco Polo Airport (LIPZ)
Time Latitude Longitude Altitude Speed Heading
2026-05-05 16:18 47.15876 8.70523 30859 ft 303 kts 133°
2026-05-05 16:18 47.14629 8.73035 30856 ft 305 kts 133°
2026-05-05 16:19 47.10848 8.80643 30868 ft 308 kts 133°
2026-05-05 16:19 47.07063 8.88232 30865 ft 306 kts 133°
2026-05-05 16:20 47.02048 8.98241 30867 ft 308 kts 135°
2026-05-05 16:22 46.95628 9.11020 30871 ft 313 kts 136°
2026-05-05 16:23 46.90475 9.21238 30880 ft 310 kts 136°
2026-05-05 16:23 46.86631 9.28833 30876 ft 311 kts 136°
2026-05-05 16:24 46.84053 9.33899 30881 ft 313 kts 136°
2026-05-05 16:25 46.80167 9.41559 30887 ft 310 kts 137°
2026-05-05 16:25 46.76250 9.49221 30898 ft 318 kts 137°
2026-05-05 16:26 46.71002 9.59486 30932 ft 315 kts 138°
2026-05-05 16:27 46.68372 9.64616 30943 ft 318 kts 137°
2026-05-05 16:27 46.65707 9.69798 30961 ft 323 kts 137°
2026-05-05 16:28 46.63057 9.74986 30951 ft 312 kts 138°
2026-05-05 16:28 46.60456 9.79972 30958 ft 313 kts 138°
2026-05-05 16:29 46.57842 9.85056 30966 ft 316 kts 137°
2026-05-05 16:29 46.55169 9.90207 30972 ft 319 kts 137°
2026-05-05 16:30 46.52541 9.95284 30958 ft 313 kts 137°
2026-05-05 16:30 46.49886 10.00384 30959 ft 318 kts 137°
2026-05-05 16:31 46.47090 10.05228 30958 ft 305 kts 149°
2026-05-05 16:31 46.43850 10.09109 30959 ft 303 kts 150°
2026-05-05 16:32 46.40608 10.13008 30963 ft 304 kts 150°
2026-05-05 16:32 46.37331 10.16934 30961 ft 307 kts 150°
2026-05-05 16:33 46.34061 10.20848 30979 ft 305 kts 150°
2026-05-05 16:33 46.30758 10.24780 30974 ft 305 kts 150°
2026-05-05 16:34 46.27501 10.28669 30985 ft 305 kts 150°
2026-05-05 16:34 46.24212 10.32580 30979 ft 306 kts 150°
2026-05-05 16:35 46.20942 10.36468 30987 ft 304 kts 150°
2026-05-05 16:35 46.17671 10.40349 30988 ft 304 kts 150°
2026-05-05 16:36 46.14412 10.44210 30984 ft 302 kts 149°
2026-05-05 16:36 46.11181 10.48031 30983 ft 303 kts 149°
2026-05-05 16:37 46.07904 10.51895 30986 ft 304 kts 149°
2026-05-05 16:37 46.04626 10.55758 30572 ft 306 kts 149°
2026-05-05 16:38 46.02988 10.57695 30174 ft 302 kts 149°
2026-05-05 16:38 46.01370 10.59603 29743 ft 295 kts 150°
2026-05-05 16:38 45.99808 10.61436 29353 ft 293 kts 150°
2026-05-05 16:38 45.98202 10.63309 28960 ft 299 kts 150°
2026-05-05 16:39 45.96570 10.65222 28570 ft 304 kts 149°
2026-05-05 16:39 45.94921 10.67165 28164 ft 304 kts 149°
2026-05-05 16:39 45.93306 10.69065 27766 ft 302 kts 149°
2026-05-05 16:39 45.91679 10.70970 27374 ft 301 kts 149°
2026-05-05 16:40 45.90068 10.72853 26971 ft 301 kts 148°
2026-05-05 16:40 45.88442 10.74745 26573 ft 305 kts 148°
2026-05-05 16:40 45.86789 10.76677 26168 ft 307 kts 148°
2026-05-05 16:40 45.85128 10.78621 25760 ft 306 kts 148°
2026-05-05 16:41 45.83476 10.80545 25359 ft 305 kts 148°
2026-05-05 16:41 45.81817 10.82479 24955 ft 308 kts 148°
2026-05-05 16:41 45.80171 10.84401 24549 ft 310 kts 148°
2026-05-05 16:41 45.78482 10.86363 24136 ft 312 kts 148°
2026-05-05 16:42 45.76791 10.88331 23722 ft 313 kts 148°
2026-05-05 16:42 45.75115 10.90276 23278 ft 312 kts 148°
2026-05-05 16:42 45.73422 10.92245 22858 ft 312 kts 148°
2026-05-05 16:42 45.71757 10.94177 22436 ft 310 kts 148°
2026-05-05 16:43 45.70074 10.96122 22023 ft 311 kts 148°
2026-05-05 16:43 45.68385 10.98078 21611 ft 313 kts 148°
2026-05-05 16:43 45.66692 11.00036 21195 ft 314 kts 148°
2026-05-05 16:43 45.65012 11.02064 20774 ft 318 kts 143°
2026-05-05 16:44 45.63599 11.04503 20362 ft 327 kts 131°
2026-05-05 16:44 45.62372 11.07265 19936 ft 329 kts 128°
2026-05-05 16:44 45.61138 11.10023 19496 ft 330 kts 129°
2026-05-05 16:44 45.59889 11.12783 19056 ft 330 kts 129°
2026-05-05 16:45 45.58645 11.15546 18628 ft 329 kts 129°
2026-05-05 16:45 45.57411 11.18295 18183 ft 328 kts 129°
2026-05-05 16:45 45.56196 11.21007 17727 ft 327 kts 129°
2026-05-05 16:45 45.54957 11.23755 17296 ft 331 kts 129°
2026-05-05 16:46 45.53701 11.26536 16859 ft 332 kts 128°
2026-05-05 16:46 45.52463 11.29293 16431 ft 327 kts 128°
2026-05-05 16:46 45.51248 11.31980 15998 ft 325 kts 128°
2026-05-05 16:46 45.50026 11.34679 15575 ft 323 kts 128°
2026-05-05 16:47 45.48810 11.37373 15149 ft 321 kts 128°
2026-05-05 16:47 45.47612 11.40019 14732 ft 320 kts 128°
2026-05-05 16:47 45.46407 11.42676 14312 ft 318 kts 128°
2026-05-05 16:47 45.45212 11.45314 13894 ft 316 kts 128°
2026-05-05 16:48 45.44015 11.47950 13451 ft 313 kts 127°
2026-05-05 16:48 45.42831 11.50539 13032 ft 309 kts 129°
2026-05-05 16:48 45.41480 11.52795 12754 ft 300 kts 138°
2026-05-05 16:48 45.40060 11.55014 12506 ft 304 kts 136°
2026-05-05 16:49 45.38654 11.57272 12250 ft 302 kts 136°
2026-05-05 16:49 45.37259 11.59493 11993 ft 300 kts 136°
2026-05-05 16:49 45.35935 11.61784 11667 ft 302 kts 129°
2026-05-05 16:49 45.35150 11.64478 11197 ft 288 kts 109°
2026-05-05 16:50 45.34714 11.67146 10843 ft 266 kts 105°
2026-05-05 16:50 45.34303 11.69763 10505 ft 283 kts 107°
2026-05-05 16:50 45.33805 11.72524 10123 ft 295 kts 108°
2026-05-05 16:50 45.33291 11.75365 9704 ft 295 kts 107°
2026-05-05 16:51 45.32803 11.78157 9307 ft 293 kts 107°
2026-05-05 16:51 45.32309 11.80970 8917 ft 291 kts 107°
2026-05-05 16:51 45.31813 11.83748 8535 ft 289 kts 107°
2026-05-05 16:51 45.31323 11.86503 8161 ft 287 kts 107°
2026-05-05 16:52 45.30831 11.89260 7783 ft 287 kts 107°
2026-05-05 16:52 45.30347 11.91979 7410 ft 286 kts 107°
2026-05-05 16:52 45.29857 11.94725 7033 ft 284 kts 107°
2026-05-05 16:52 45.29371 11.97438 6658 ft 276 kts 107°
2026-05-05 16:53 45.28925 11.99952 6321 ft 255 kts 107°
2026-05-05 16:53 45.28540 12.02358 5992 ft 245 kts 100°
2026-05-05 16:53 45.28600 12.04778 5668 ft 245 kts 81°
2026-05-05 16:53 45.29125 12.07044 5353 ft 244 kts 63°
2026-05-05 16:54 45.30082 12.09024 5031 ft 242 kts 46°
2026-05-05 16:54 45.31307 12.10605 4713 ft 239 kts 40°
2026-05-05 16:54 45.32546 12.12173 4399 ft 237 kts 41°
2026-05-05 16:54 45.33755 12.13725 4127 ft 229 kts 41°
2026-05-05 16:55 45.34951 12.15215 3844 ft 229 kts 41°
2026-05-05 16:55 45.36137 12.16732 3536 ft 229 kts 43°
2026-05-05 16:55 45.37294 12.18231 3238 ft 226 kts 42°
2026-05-05 16:55 45.38468 12.19710 2932 ft 222 kts 43°
2026-05-05 16:56 45.39563 12.21142 2639 ft 204 kts 43°
2026-05-05 16:56 45.40586 12.22426 2374 ft 187 kts 42°
2026-05-05 16:56 45.41500 12.23622 2134 ft 175 kts 43°
2026-05-05 16:56 45.42386 12.24741 1907 ft 166 kts 42°
2026-05-05 16:57 45.43221 12.25827 1687 ft 159 kts 44°
2026-05-05 16:57 45.43760 12.26521 1545 ft 155 kts 42°
2026-05-05 16:57 45.44561 12.27533 1341 ft 148 kts 43°
2026-05-05 16:57 45.45259 12.28446 1151 ft 130 kts 42°
2026-05-05 16:58 45.45914 12.29274 977 ft 122 kts 44°
2026-05-05 16:58 45.46522 12.30067 814 ft 116 kts 41°
2026-05-05 16:58 45.47119 12.30826 658 ft 114 kts 43°
2026-05-05 16:58 45.47685 12.31556 497 ft 104 kts 42°
2026-05-05 16:59 45.48219 12.32237 363 ft 101 kts 42°
2026-05-05 16:59 45.48713 12.32875 237 ft 93 kts 42°
2026-05-05 16:59 45.49194 12.33491 112 ft 94 kts 42°
2026-05-05 16:59 45.49676 12.34110 14 ft 89 kts 42°
2026-05-05 17:00 45.50091 12.34645 9 ft 74 kts 43°
2026-05-05 17:00 45.50353 12.34983 7 ft 29 kts 41°
2026-05-05 17:00 45.50477 12.35056 7 ft 16 kts 13°
2026-05-05 17:00 45.50572 12.35080 8 ft 12 kts 347°
2026-05-05 17:01 45.50614 12.35005 8 ft 9 kts 279°
2026-05-05 17:01 45.50612 12.34934 8 ft 7 kts 265°
2026-05-05 17:01 45.50611 12.34858 9 ft 9 kts 268°
2026-05-05 17:01 45.50606 12.34762 9 ft 11 kts 250°
2026-05-05 17:02 45.50543 12.34673 10 ft 15 kts 222°
2026-05-05 17:02 45.50451 12.34555 10 ft 20 kts 222°
2026-05-05 17:02 45.50338 12.34409 10 ft 23 kts 222°
2026-05-05 17:02 45.50213 12.34249 10 ft 24 kts 221°
2026-05-05 17:03 45.50094 12.34097 9 ft 22 kts 222°
2026-05-05 17:03 45.49992 12.33964 9 ft 18 kts 222°
2026-05-05 17:03 45.49911 12.33862 9 ft 13 kts 221°
2026-05-05 17:03 45.49882 12.33783 9 ft 9 kts 316°
2026-05-05 17:04 45.49906 12.33746 9 ft 0 kts 312°